Weather in Zarubino

Russia / Kostroma Oblast     58°50′23″N   42°37′00″E
temp.,
°C
wind,
m/s
gust,
m/s
humid.,
%
clouds,
%
prec.,
mm/h
press.,
hPa
HPBL,
m
17 may, tue
tue1700:00+7n389791 0.4 999269
03:00+6nne3899100 0.5 1000248
06:00+7nne3997100 0.1 1000368
09:00+9nne4992100 0.1 1001570
12:00+9nne5885100 0.3 10021118
15:00+6nne51093100 0.9 1004707
18:00+8nne51084100 0.0 10051058
21:00+6nne5108150 0.0 1007731
18 may, wed
wed1800:00+3nne4118571 0.0 1008461
03:00+5nne4868100 0.0 1008777
06:00+5n497338 0.0 1009495
09:00+8n465512 0.0 10091279
12:00+10n464786 0.0 10091865
15:00+7nnw5672100 0.1 10101058
18:00+5nnw378896 0.8 1010755
21:00+3wnw269625 1.1 1011163
19 may, thu
thu1900:00+1wnw2897100 0.0 1011189
03:00+1wnw259739 0.0 1010170
06:00+2nw3796100 0.0 1010469
09:00+3nnw4686100 0.2 1011759
12:00+4nw477366 0.1 10121164
15:00+9nnw5843100 0.3 10122319
18:00+6nw5869100 0.4 10131269
21:00+2nw41097100 0.6 1014756
20 may, fri
fri2000:00+1nnw411915 0.1 1015538
03:00−1nw3109718 0.1 1016355
06:00+1nnw488827 0.0 1017343
09:00+7n45596 0.0 10171141
12:00+10nnw3541100 0.1 10172327
15:00+11nnw453797 0.1 10162299
18:00+10nnw244467 0.0 10152037
21:00+5nnw116598 0.0 101510
21 may, sat
sat2100:00+3ne247290 0.0 101591
03:00+1ne237487 0.0 101460
06:00+3nne35625 0.0 1014230
09:00+8nne33425 0.0 10131619
12:00+10nne3434100 0.0 10112456
15:00+11nne3432100 0.0 10112411
18:00+10nne34395 0.0 10102158
21:00+4nne23635 0.0 101146